Location: Tierra del Sol
(32.6128°N, 116.3319°W)
Time: 05:33:40
(UTC-07:00)

Vanguard 2 - Pass Details

Date: 24 April 2018
Orbit: 552 x 2940 km, 32.9° (Epoch: 22 May)

Event Time Altitude Azimuth Distance (km) Brightness Sun altitude
Rises 04:21:00 0° 273° (W) 2,999 - -21.0°
Reaches altitude 10° 04:24:06 10° 254° (WSW) 1,910 - -20.4°
Maximum altitude 04:26:55 18° 210° (SSW) 1,403 - -19.9°
Drops below altitude 10° 04:29:38 10° 166° (SSE) 1,819 - -19.4°
Exits shadow 04:29:39 10° 166° (SSE) 1,824 9.3 -19.4°
Sets 04:32:29 0° 146° (SE) 2,793 10.5 -18.9°
